Location: Coed Ely
(51.5661°N, 3.4150°W)
Time: 19:49:25
(UTC+00:00)

Cosmos 2227 Rocket - Pass Details

Date: 28 January 2021
Orbit: 837 x 846 km, 71.0° (Epoch: 27 February)

Event Time Altitude Azimuth Distance (km) Brightness Sun altitude
Rises 19:36:26 0° 320° (NW) 3,418 6.0 -24.8°
Reaches altitude 10° 19:41:04 10° 354° (N) 2,482 4.7 -25.5°
Maximum altitude 19:42:45 11° 11° (NNE) 2,393 4.5 -25.7°
Enters shadow 19:43:02 11° 14° (NNE) 2,395 4.4 -25.8°
